Location: Bílinka
(49.3579°N, 14.3767°E)
Time: 21:34:03
(UTC+00:00)

PSLV R/B - Pass Details

Date: 29 March 2025
Orbit: 410 x 442 km, 97.7° (Epoch: 28 April)

Event Time Altitude Azimuth Distance (km) Brightness Sun altitude
Exits shadow 21:05:07 14° 304° (NW) 1,330 6.5 -30.7°
Drops below altitude 10° 21:05:56 10° 315° (NW) 1,558 7.0 -30.8°
Sets 21:08:20 0° 333° (NNW) 2,423 8.2 -31.0°
